DW3795 Weather Reports


time (UTC)temp
C
wind
direction
speed
KPH
gust
KPH
rain 1hr
cm
rain 24hr
cm
rain mn
cm
humidity
%
barometer
mb
20260508030009 10 241 0.0 0.0 0.00 0.28 0.18 92 1013.1
20260508024510 11 240 0.0 0.0 0.00 0.28 0.18 92 1012.9
20260508023004 11 241 0.0 1.6 0.00 0.28 0.18 92 1012.8
20260508021502 11 241 0.0 0.0 0.00 0.28 0.18 92 1012.4
20260508020058 12 241 0.0 0.0 0.00 0.28 0.18 92 1012.1
20260508014555 12 241 0.0 1.6 0.00 0.28 0.18 92 1011.9
20260508013053 12 10 0.0 3.2 0.00 0.28 0.18 92 1011.8
20260508011556 13 241 0.0 1.6 0.00 0.28 0.18 92 1011.7
20260508010051 13 241 0.0 0.0 0.00 0.28 0.18 92 1011.9
20260508004550 13 241 0.0 0.0 0.00 0.28 0.18 92 1011.9
20260508003050 13 241 0.0 0.0 0.00 0.28 0.18 92 1011.8
20260508001550 13 241 0.0 1.6 0.00 0.28 0.18 91 1011.4
20260508000106 13 241 0.0 3.2 0.00 0.28 0.18 91 1011.1
20260507234549 13 241 0.0 1.6 0.00 0.28 0.18 91 1010.9
20260507233048 13 242 0.0 3.2 0.00 0.28 0.18 91 1010.8
20260507231553 13 242 0.0 1.6 0.00 0.28 0.18 91 1010.5
20260507230047 13 242 0.0 3.2 0.00 0.28 0.18 91 1010.3
20260507224550 13 250 0.0 0.0 0.00 0.28 0.18 91 1010.4
20260507223046 13 250 0.0 0.0 0.00 0.28 0.18 91 1010.5
20260507221545 13 250 0.0 0.0 0.00 0.28 0.18 91 1010.4
20260507220045 13 250 0.0 0.0 0.00 0.28 0.18 91 1010.5
20260507214546 13 250 0.0 3.2 0.00 0.28 0.18 91 1010.3
20260507213045 13 250 0.0 1.6 0.00 0.28 0.18 91 1010.4
20260507211551 13 250 0.0 3.2 0.00 0.28 0.18 91 1010.3
20260507210049 13 248 0.0 3.2 0.00 0.28 0.18 92 1010.1
20260507204542 13 249 0.0 3.2 0.00 0.28 0.18 92 1010.3
20260507203041 13 249 0.0 3.2 0.00 0.28 0.18 92 1010.5
20260507201540 13 250 0.0 6.4 0.00 0.28 0.18 92 1010.2
20260507200041 13 337 0.0 6.4 0.00 0.28 0.18 92 1010.6
20260507194540 13 331 0.0 3.2 0.03 0.28 0.18 93 1010.7
20260507193039 13 327 1.6 4.8 0.03 0.28 0.18 93 1010.4
20260507191538 13 352 1.6 4.8 0.03 0.28 0.18 93 1010.6
20260507190039 13 352 0.0 3.2 0.03 0.28 0.18 93 1010.7
20260507184536 13 352 0.0 3.2 0.00 0.25 0.15 93 1010.8
20260507183036 13 353 0.0 4.8 0.00 0.25 0.15 94 1010.7
20260507181535 13 329 0.0 3.2 0.00 0.25 0.15 94 1010.7
20260507180034 13 212 0.0 6.4 0.00 0.25 0.15 94 1010.6
20260507174546 13 309 0.0 3.2 0.00 0.25 0.15 94 1010.7
20260507173033 13 339 1.6 4.8 0.00 0.25 0.15 94 1010.7
20260507171541 13 120 0.0 6.4 0.00 0.25 0.15 94 1010.6
20260507170030 13 15 0.0 4.8 0.00 0.25 0.15 94 1010.3
20260507164528 13 51 1.6 8.0 0.00 0.25 0.15 94 1010.8
20260507163027 13 310 0.0 6.4 0.00 0.25 0.15 94 1011.0
20260507161527 13 98 1.6 3.2 0.00 0.25 0.15 94 1010.8
20260507160030 13 190 0.0 6.4 0.00 0.28 0.15 95 1010.8
20260507154522 13 337 1.6 6.4 0.00 0.28 0.15 94 1011.0
20260507153025 13 332 0.0 4.8 0.00 0.28 0.15 94 1010.8
20260507151516 15 333 1.6 4.8 0.00 0.28 0.15 95 1011.0
20260507150012 15 298 1.6 6.4 0.00 0.28 0.15 95 1010.8
20260507144508 16 356 3.2 6.4 0.00 0.28 0.15 96 1010.1
20260507143007 16 158 0.0 0.0 0.00 0.28 0.15 96 1009.3
20260507141506 17 158 0.0 0.0 0.03 0.28 0.15 96 1009.7
20260507140009 17 158 0.0 0.0 0.03 0.28 0.15 96 1010.1
20260507134505 17 158 0.0 0.0 0.03 0.28 0.15 96 1009.6
20260507133003 17 158 0.0 3.2 0.03 0.28 0.15 96 1009.7
20260507131502 17 160 0.0 3.2 0.00 0.25 0.13 96 1010.1
20260507130001 17 160 0.0 1.6 0.03 0.25 0.13 96 1010.6
20260507124604 17 160 0.0 1.6 0.03 0.25 0.13 96 1010.3
20260507123105 17 160 0.0 0.0 0.03 0.25 0.13 96 1009.9
20260507121559 17 160 0.0 3.2 0.03 0.25 0.13 96 1010.2
20260507120056 17 160 0.0 0.0 0.00 0.23 0.10 96 1010.2
20260507114554 17 160 0.0 0.0 0.00 0.23 0.10 96 1010.0
20260507113126 17 160 0.0 1.6 0.00 0.23 0.10 96 1010.0
20260507111554 17 160 0.0 3.2 0.00 0.23 0.10 95 1009.7
20260507110052 17 160 0.0 1.6 0.00 0.23 0.10 95 1010.2
20260507104559 17 160 0.0 0.0 0.03 0.23 0.10 95 1009.8
20260507103049 17 160 0.0 1.6 0.03 0.23 0.10 95 1009.7
20260507101553 17 160 1.6 4.8 0.03 0.23 0.10 95 1009.3
20260507100055 17 148 0.0 4.8 0.03 0.23 0.10 95 1008.9
20260507094546 17 203 0.0 6.4 0.00 0.20 0.08 95 1009.8
20260507093045 17 184 0.0 1.6 0.00 0.20 0.08 95 1009.9
20260507091548 17 185 0.0 0.0 0.00 0.20 0.08 95 1010.1
20260507090043 17 185 0.0 0.0 0.00 0.20 0.08 95 1009.6
20260507084553 17 184 0.0 0.0 0.00 0.20 0.08 95 1009.5
20260507083041 17 185 0.0 3.2 0.00 0.20 0.08 95 1009.8
20260507081541 17 185 0.0 1.6 0.00 0.20 0.08 95 1009.7
20260507080039 17 184 0.0 1.6 0.00 0.20 0.08 94 1009.6
20260507074542 17 181 0.0 6.4 0.03 0.20 0.08 94 1009.7
20260507073038 17 114 0.0 3.2 0.03 0.20 0.08 94 1009.4
20260507071542 17 109 1.6 6.4 0.03 0.20 0.08 94 1009.0
20260507070039 17 177 0.0 8.0 0.03 0.20 0.08 94 1009.5
20260507064543 18 194 1.6 6.4 0.00 0.18 0.05 94 1009.7
20260507063033 18 233 0.0 3.2 0.00 0.18 0.05 94 1009.9
20260507061537 18 191 1.6 6.4 0.00 0.18 0.05 94 1010.7
20260507060038 18 187 0.0 3.2 0.00 0.18 0.05 93 1010.7
20260507054539 18 187 0.0 3.2 0.00 0.18 0.05 93 1010.9
20260507053031 18 186 0.0 0.0 0.00 0.18 0.05 93 1011.3
20260507051529 18 186 0.0 0.0 0.00 0.18 0.05 93 1011.8
20260507050049 18 186 0.0 0.0 0.05 0.18 0.05 93 1011.3
20260507044525 18 186 0.0 4.8 0.10 0.18 0.05 92 1011.7
20260507043024 18 198 1.6 4.8 0.13 0.18 0.05 92 1011.3
20260507041522 18 197 1.6 8.0 0.15 0.18 0.05 91 1011.1
20260507040022 18 205 0.0 4.8 0.10 0.13 0.13 91 1011.5
20260507034519 18 206 0.0 4.8 0.05 0.08 0.08 90 1012.2
20260507033021 18 190 0.0 3.2 0.03 0.05 0.05 89 1012.4
20260507031515 19 190 0.0 0.0 0.00 0.03 0.03 88 1012.2